Regional Weather Roundup
Issued by NWS

Home | Current Version | Previous Version | Graphics & Text | Print | Product List | Glossary On
Versions: 1 2 3 4 5 6 7 8 9 10 11 12 13 14 15 16 17 18 19 20 21 22 23 24 25 26 27 28 29 30 31 32 33 34 35 36 37 38 39 40 41 42 43 44 45 46 47 48 49 50
000
ASUS45 KCYS 231710
RWRWY

WYOMING REGIONAL WEATHER ROUNDUP
NATIONAL WEATHER SERVICE CHEYENNE WY
1100 AM MDT TUE SEP 23 2014

NOTE:  "FAIR" INDICATES FEW OR NO CLOUDS BELOW 12,000 FEET
WITH NO SIGNIFICANT WEATHER AND/OR OBSTRUCTIONS TO VISIBILITY.

WYZ001-231800-
YELLOWSTONE NATIONAL PARK

CITY           SKY/WX    TMP DP  RH WIND       PRES   REMARKS
LK YELLOWSTONE   N/A     52  46  80 CALM      30.37R
W YELLOWSTONE  NOT AVBL

$$
WYZ002>013-054>058-071-098>099-231800-
NORTHERN WYOMING

CITY           SKY/WX    TMP DP  RH WIND       PRES   REMARKS
JACKSON        CLOUDY    54  48  82 CALM      30.31R
CODY           SUNNY     72  45  37 W9G16     30.11S
GREYBULL       SUNNY     69  47  45 SW3       30.07R
WORLAND        SUNNY     69  47  45 W5        30.09R
SHERIDAN       SUNNY     77  47  34 NW18      30.02R
BUFFALO        PTSUNNY   74  45  35 N12       30.07S
GILLETTE       MOSUNNY   71  48  43 NW16      30.02R
HULETT         FAIR      64  54  68 MISG      30.01
NEWCASTLE      FAIR      63  54  72 W6        30.03

$$
WYZ014>020-022>026-101>103-231800-
CENTRAL WYOMING

CITY           SKY/WX    TMP DP  RH WIND       PRES   REMARKS
BIG PINEY      SUNNY     58  48  69 SW6       30.31R
PINEDALE       SUNNY     61  45  55 NW12      30.30S
DUBOIS         FAIR      61  36  39 NW17      30.27S
LANDER         SUNNY     69  42  37 NW7       30.16R
RIVERTON       SUNNY     70  41  34 N6        30.16S
CASPER         SUNNY     71  41  33 SW12      30.12S
DOUGLAS        SUNNY     74  43  32 NW17G25   30.08S

$$
WYZ021-027>030-104>119-231800-
SOUTHERN WYOMING

CITY           SKY/WX    TMP DP  RH WIND       PRES   REMARKS
EVANSTON       SUNNY     65  46  50 SW12      30.32S
KEMMERER       SUNNY     61  45  55 W8        30.34R
FORT BRIDGER   FAIR      65  48  53 W7        30.34F
ROCK SPRINGS   SUNNY     61  45  55 W10       30.29S
DIXON          FAIR      64  51  64 W8        30.31S
RAWLINS        SUNNY     64  44  48 W16       30.26R
SARATOGA       FAIR      63  46  55 W17G25    30.28R
LARAMIE        PTSUNNY   64  39  39 W20G30    30.23S
CHEYENNE       MOSUNNY   70  41  34 NW8       30.17R
TORRINGTON     SUNNY     74  51  44 NW10      30.03S
PINE BLUFFS    FAIR      72  43  35 W18G26    30.12S

$$


USA.gov is the U.S. government's official web portal to all federal, state and local government web resources and services.